Cross City, FL

4:13 AM EDT on August 29, 2016 (GMT -0400)
Cross City

Weather History for KCTY - October, 2013

Change the Weather History Date:

Tuesday, October 8, 2013

  Actual Average Record
Temperature  
Mean Temperature 79 °F 73 °F  
Max Temperature 87 °F 84 °F 92 °F (2014)
Min Temperature 70 °F 61 °F 48 °F (2010)
Degree Days  
Heating Degree Days 0 0  
Month to date heating degree days 0 0  
Since 1 July heating degree days 0 0  
Cooling Degree Days 14 8  
Month to date cooling degree days 115 74  
Year to date cooling degree days 2614 2416  
Growing Degree Days 29 (Base 50)    
Moisture  
Dew Point 70 °F    
Average Humidity 85    
Maximum Humidity 100    
Minimum Humidity 61    
Precipitation  
Precipitation 0.00 in 0.13 in 0.27 in (2008)
Month to date precipitation 0.22 1.19  
Year to date precipitation 58.16 41.02  
Sea Level Pressure  
Sea Level Pressure 29.90 in    
Wind  
Wind Speed 6 mph (NNE)    
Max Wind Speed 13 mph    
Max Gust Speed 18 mph    
T = Trace of Precipitation, MM = Missing Value Source: NWS Daily Summary

Daily Weather History Graph

Daily Weather History Graph

Search for Another Location

Airport or City:

Trip Planner

Search our weather history database for the weather conditions in past years. The results will help you decide how hot, cold, wet, or windy it might be!

Date:

Astronomy

Oct. 08, 2013 Rise Set
Actual Time 7:29 AM EDT 7:09 PM EDT
Civil Twilight 7:05 AM EDT 7:33 PM EDT
Nautical Twilight 6:38 AM EDT 8:00 PM EDT
Astronomical Twilight 6:10 AM EDT 8:28 PM EDT
Moon 11:06 AM EDT (10/8) 10:01 PM EDT (10/8)
Length of Visible Light 12h 27m
Length of Day
11h 39m
Waxing Crescent, 16% of the Moon is Illuminated
Oct 8
Waxing Crescent
Oct 11
First Quarter
Oct 18
Full
Oct 26
Last Quarter
Nov 3
New

Hourly Weather History & Observations

Time (EDT) Temp. Heat Index Dew Point Humidity Pressure Visibility Wind Dir Wind Speed Gust Speed Precip Events Conditions
12:53 AM 73.0 °F - 72.0 °F 96% 29.82 in - Calm Calm - N/A   Unknown
1:53 AM 73.0 °F - 71.1 °F 93% 29.83 in - NNW 3.5 mph - N/A   Unknown
2:53 AM 73.0 °F - 71.1 °F 93% 29.83 in - NNW 3.5 mph - N/A   Unknown
3:53 AM 72.0 °F - 71.1 °F 97% 29.83 in - NNE 4.6 mph - N/A   Unknown
4:53 AM 73.0 °F - 71.1 °F 93% 29.83 in - NNE 3.5 mph - N/A   Unknown
5:53 AM 72.0 °F - 71.1 °F 97% 29.84 in - Calm Calm - N/A   Unknown
6:53 AM 71.1 °F - 70.0 °F 96% 29.84 in - Calm Calm - N/A   Unknown
7:53 AM 71.1 °F - 70.0 °F 96% 29.87 in - North 4.6 mph - N/A   Unknown
8:53 AM 72.0 °F - 70.0 °F 93% 29.89 in - North 5.8 mph - N/A   Unknown
9:53 AM 73.0 °F - 70.0 °F 90% 29.91 in - North 5.8 mph - N/A   Unknown
10:53 AM 75.9 °F - 70.0 °F 82% 29.93 in - North 8.1 mph - N/A   Unknown
11:53 AM 75.9 °F - 70.0 °F 82% 29.94 in - NNE 10.4 mph - N/A   Unknown
12:53 PM 75.9 °F - 69.1 °F 79% 29.94 in - NE 5.8 mph - N/A   Unknown
1:53 PM 78.1 °F - 70.0 °F 76% 29.91 in - North 6.9 mph - N/A   Unknown
2:53 PM 81.0 °F 84.4 °F 70.0 °F 69% 29.90 in - NE 4.6 mph - N/A   Unknown
3:53 PM 84.0 °F 88.4 °F 70.0 °F 63% 29.90 in - NNE 11.5 mph - N/A   Unknown
4:53 PM 82.9 °F 87.0 °F 70.0 °F 65% 29.91 in - NNE 4.6 mph - N/A   Unknown
5:53 PM 78.1 °F - 72.0 °F 81% 29.92 in - NE 5.8 mph - N/A   Unknown
6:53 PM 77.0 °F - 71.1 °F 82% 29.94 in - Variable 5.8 mph - N/A   Unknown
7:53 PM 75.0 °F - 71.1 °F 87% 29.95 in - NE 4.6 mph - N/A   Unknown
8:53 PM 73.9 °F - 69.1 °F 85% 29.98 in - NE 9.2 mph - N/A   Unknown
9:53 PM 72.0 °F - 66.9 °F 84% 30.00 in - NE 10.4 mph - N/A   Unknown
10:53 PM 71.1 °F - 66.0 °F 84% 30.01 in - NE 6.9 mph - N/A   Unknown
11:53 PM 71.1 °F - 66.0 °F 84% 30.01 in - NE 6.9 mph - N/A   Unknown